1514023200.23,26688,7.06,73248.3,-10.03,-10.45,-10.35,0,*67
1514023201.45,26689,7.13,73270.8,-10.05,-10.49,-10.35,0,*6C
1514023202.69,26690,7.06,73302.0,-10.03,-10.45,-10.35,0,*6E
1514023203.93,26691,7.06,73268.3,-10.03,-10.45,-10.45,0,*68
1514023205.17,26692,7.13,73266.3,-10.03,-10.49,-10.35,0,*60
1514023206.42,26693,7.13,73264.5,-10.03,-10.35,-10.35,0,*6A
1514023207.66,26694,7.13,73236.5,-10.03,-10.45,-10.45,0,*6D
1514023208.94,26695,7.13,73270.0,-10.01,-10.41,-10.41,0,*6E
1514023210.18,26696,7.13,73258.5,-10.01,-10.41,-10.31,0,*6A
1514023211.43,26697,7.13,73264.3,-10.01,-10.41,-10.31,0,*6B
1514023212.68,26698,7.13,73262.8,-10.01,-10.41,-10.31,0,*64
1514023213.92,26699,7.13,73250.5,-10.01,-10.41,-10.45,0,*66
1514023215.19,26700,7.06,73246.8,-10.01,-10.41,-10.41,0,*63
1514023216.44,26701,7.13,73258.5,-10.01,-10.31,-10.41,0,*65
1514023217.71,26702,7.13,73248.3,-10.01,-10.41,-10.41,0,*61
1514023218.99,26703,7.13,73242.5,-10.01,-10.41,-10.41,0,*60
1514023220.23,26704,7.13,73236.0,-10.01,-10.45,-10.41,0,*63
1514023221.5,26705,7.13,73248.5,-10.01,-10.41,-10.41,0,*66
1514023222.72,26706,7.13,73250.5,-10.01,-10.31,-10.31,0,*65
1514023224.01,26707,7.13,73230.8,-9.99,-10.41,-10.41,0,*5D
1514023225.28,26708,7.13,73172.5,-9.99,-10.45,-10.41,0,*56
1514023226.55,26709,7.13,73188.8,-10.01,-10.41,-10.41,0,*6A
1514023227.81,26710,7.13,73222.5,-9.99,-10.41,-10.31,0,*5C
1514023229.09,26711,7.13,73278.0,-10.01,-10.41,-10.41,0,*63
1514023230.33,26712,7.13,73258.8,-10.01,-10.41,-10.31,0,*67
1514023231.55,26713,7.06,73254.3,-10.01,-10.45,-10.31,0,*62
1514023232.81,26714,7.13,73248.8,-9.99,-10.41,-10.31,0,*58
1514023234.09,26715,7.13,73248.0,-10.01,-10.41,-10.41,0,*67
1514023235.3,26716,7.13,73260.0,-10.01,-10.45,-10.45,0,*64
1514023236.52,26717,7.13,73244.5,-10.01,-10.45,-10.45,0,*65
1514023237.78,26718,7.13,73246.3,-9.99,-10.41,-10.45,0,*57
1514023239.07,26719,7.13,73262.5,-9.99,-10.41,-10.41,0,*52
1514023240.31,26720,7.13,73270.3,-10.01,-10.41,-10.45,0,*65
1514023241.58,26721,7.13,73250.8,-9.99,-10.41,-10.31,0,*5E
1514023242.82,26722,7.13,73262.5,-10.01,-10.41,-10.45,0,*67
1514023244.08,26723,7.13,73260.0,-9.99,-10.41,-10.31,0,*5C
1514023245.32,26724,7.06,73290.8,-9.99,-10.31,-10.31,0,*5C
1514023246.59,26725,7.13,73276.8,-10.01,-10.41,-10.41,0,*64
1514023247.84,26726,7.13,73282.8,-10.01,-10.41,-10.45,0,*63
1514023249.07,26727,7.13,73282.8,-9.99,-10.45,-10.31,0,*5C
1514023250.36,26728,7.06,73274.5,-9.99,-10.41,-10.41,0,*50
1514023251.63,26729,7.13,73284.5,-9.99,-10.45,-10.41,0,*55
1514023252.89,26730,7.13,73282.5,-9.99,-10.45,-10.41,0,*5D
1514023254.16,26731,7.06,73280.8,-10.01,-10.41,-10.41,0,*61
1514023255.42,26732,7.13,73268.5,-9.99,-10.41,-10.45,0,*5F
1514023256.71,26733,7.13,73286.5,-9.99,-10.41,-10.41,0,*5A
1514023257.97,26734,7.13,73276.5,-9.99,-10.41,-10.45,0,*59
1514023259.23,26735,7.13,73298.5,-9.99,-10.41,-10.45,0,*58
1514023260.5,26736,7.13,73290.5,-9.99,-10.45,-10.41,0,*5B
1514023261.79,26737,7.13,73280.0,-9.99,-10.41,-10.41,0,*5E
1514023263.08,26738,7.13,73266.8,-9.99,-10.41,-10.41,0,*51
1514023264.34,26739,7.13,73282.0,-9.99,-10.45,-10.41,0,*54
1514023265.63,26740,7.13,73304.3,-9.99,-10.41,-10.41,0,*5E
1514023266.92,26741,7.13,73292.8,-9.99,-10.41,-10.41,0,*5F
1514023268.21,26742,7.13,73312.5,-9.99,-10.41,-10.41,0,*5C
1514023269.5,26743,7.06,73272.8,-9.99,-10.41,-10.41,0,*5D
1514023270.79,26744,7.06,73260.0,-9.99,-10.41,-10.41,0,*5A
1514023272.05,26745,7.13,73262.0,-9.99,-10.41,-10.31,0,*5C
1514023273.34,26746,7.13,73244.0,-9.99,-10.41,-10.41,0,*58
1514023274.57,26747,7.13,73244.5,-9.97,-10.35,-10.35,0,*57
1514023275.79,26748,7.06,73234.5,-9.97,-10.35,-10.27,0,*5B
1514023277.01,26749,7.13,73268.3,-9.97,-10.35,-10.27,0,*5A
1514023278.22,26750,7.06,73242.3,-9.97,-10.27,-10.35,0,*52
1514023279.47,26751,7.06,73274.3,-9.97,-10.41,-10.35,0,*53
1514023280.69,26752,7.13,73284.0,-9.97,-10.35,-10.35,0,*53
1514023281.91,26753,7.06,73218.3,-9.97,-10.35,-10.35,0,*52
1514023283.13,26754,7.13,73256.8,-9.97,-10.35,-10.35,0,*55
1514023284.35,26755,7.06,73220.0,-9.97,-10.35,-10.27,0,*57
1514023285.61,26756,7.13,73278.5,-9.99,-10.45,-10.41,0,*5D
1514023286.83,26757,7.13,73246.0,-9.97,-10.35,-10.35,0,*56
1514023288.05,26758,7.06,73256.5,-9.97,-10.35,-10.35,0,*59
1514023289.27,26759,7.13,73280.3,-9.97,-10.35,-10.35,0,*58
1514023290.56,26760,7.13,73242.0,-9.99,-10.41,-10.41,0,*5C
1514023291.78,26761,7.13,73278.5,-9.97,-10.35,-10.35,0,*53
1514023293.03,26762,7.06,73270.8,-9.97,-10.35,-10.41,0,*53
1514023294.27,26763,7.13,73282.8,-9.95,-10.27,-10.35,0,*50
1514023295.51,26764,7.13,73266.0,-9.97,-10.35,-10.41,0,*55
1514023296.73,26765,7.13,73250.0,-9.97,-10.35,-10.35,0,*57
1514023298.0,26766,7.06,73258.8,-9.97,-10.41,-10.41,0,*54
1514023299.22,26767,7.06,73260.5,-9.97,-10.27,-10.35,0,*56
1514023300.44,26768,7.13,73264.8,-9.97,-10.35,-10.35,0,*5A
1514023301.68,26769,7.13,73268.3,-9.97,-10.35,-10.41,0,*58
1514023302.97,26770,7.13,73274.8,-9.95,-10.41,-10.41,0,*51
1514023304.21,26771,7.06,73268.0,-9.97,-10.41,-10.35,0,*51
1514023305.46,26772,7.06,73268.0,-9.97,-10.35,-10.41,0,*52
1514023306.7,26773,7.13,73268.5,-9.97,-10.35,-10.41,0,*53
1514023307.95,26774,7.13,73274.5,-9.97,-10.41,-10.35,0,*54
1514023309.17,26775,7.13,73276.8,-9.97,-10.35,-10.35,0,*56
1514023310.38,26776,7.06,73278.8,-9.97,-10.27,-10.35,0,*56
1514023311.65,26777,7.06,73276.8,-9.95,-10.35,-10.41,0,*55
1514023312.89,26778,7.13,73282.0,-9.97,-10.35,-10.41,0,*58
1514023314.18,26779,7.13,73274.3,-9.95,-10.41,-10.41,0,*58
1514023315.44,26780,7.13,73280.0,-9.95,-10.41,-10.35,0,*5D
1514023316.69,26781,7.06,73268.8,-9.95,-10.35,-10.35,0,*5F
1514023317.91,26782,7.13,73260.0,-9.97,-10.35,-10.35,0,*5E
1514023319.15,26783,7.13,73272.5,-9.95,-10.35,-10.35,0,*5D
1514023320.41,26784,7.06,73280.5,-9.95,-10.41,-10.35,0,*59
1514023321.63,26785,7.06,73272.0,-9.97,-10.35,-10.35,0,*59
1514023322.88,26786,7.13,73274.0,-9.95,-10.35,-10.35,0,*58
1514023324.12,26787,7.13,73262.8,-9.95,-10.35,-10.35,0,*59
1514023325.38,26788,7.13,73254.8,-9.95,-10.41,-10.35,0,*55
1514023326.65,26789,7.06,73254.3,-9.95,-10.41,-10.35,0,*54
1514023327.89,26790,7.06,73262.3,-9.95,-10.35,-10.35,0,*5F
1514023329.15,26791,7.13,73274.0,-9.95,-10.41,-10.27,0,*5E
1514023330.42,26792,7.13,73284.0,-9.95,-10.35,-10.41,0,*5E
1514023331.64,26793,7.13,73256.0,-9.97,-10.35,-10.35,0,*5E
1514023332.86,26794,7.13,73274.3,-9.97,-10.35,-10.35,0,*59
1514023334.08,26795,7.06,73248.8,-9.97,-10.35,-10.35,0,*58
1514023335.34,26796,7.06,73244.8,-9.95,-10.35,-10.41,0,*5A
1514023336.59,26797,7.06,73224.8,-9.95,-10.35,-10.35,0,*58
1514023337.87,26798,7.13,73296.8,-9.95,-10.41,-10.41,0,*57
1514023339.12,26799,7.06,73242.5,-9.95,-10.35,-10.35,0,*56
1514023340.36,26800,7.06,73250.8,-9.95,-10.35,-10.35,0,*59
1514023341.62,26801,7.06,73258.8,-9.95,-10.35,-10.41,0,*5B
1514023342.86,26802,7.06,73252.8,-9.95,-10.35,-10.27,0,*58
1514023344.11,26803,7.06,73248.0,-9.95,-10.35,-10.35,0,*5A
1514023345.35,26804,7.13,73258.0,-9.95,-10.35,-10.35,0,*5D
1514023346.58,26805,7.13,73264.3,-9.91,-10.31,-10.31,0,*58
1514023347.82,26806,7.13,73264.8,-9.91,-10.31,-10.31,0,*5B
1514023349.05,26807,7.13,73268.5,-9.91,-10.23,-10.23,0,*5A
1514023350.29,26808,7.06,73268.8,-9.91,-10.35,-10.31,0,*51
1514023351.53,26809,7.13,73274.0,-9.91,-10.31,-10.31,0,*54
1514023352.77,26810,7.06,73272.5,-9.91,-10.35,-10.23,0,*5B
1514023354.0,26811,7.13,73274.5,-9.91,-10.31,-10.23,0,*5E
1514023355.23,26812,7.06,73274.0,-9.91,-10.31,-10.23,0,*5D
1514023356.47,26813,7.13,73278.3,-9.91,-10.31,-10.23,0,*5C
1514023357.71,26814,7.13,73278.5,-9.91,-10.31,-10.31,0,*58
1514023358.94,26815,7.13,73276.3,-9.91,-10.31,-10.23,0,*5A
1514023360.18,26816,7.13,73276.0,-9.91,-10.35,-10.23,0,*5D
1514023361.41,26817,7.13,73278.8,-9.91,-10.31,-10.31,0,*5B
1514023362.65,26818,7.13,73282.5,-9.91,-10.31,-10.31,0,*54
1514023363.89,26819,7.06,73282.8,-9.91,-10.31,-10.31,0,*55
1514023365.12,26820,7.06,73280.0,-9.91,-10.31,-10.31,0,*5F
1514023366.36,26821,7.06,73278.0,-9.91,-10.31,-10.23,0,*5D
1514023367.59,26822,7.13,73278.0,-9.91,-10.31,-10.23,0,*5E
1514023368.81,26823,7.06,73266.3,-9.89,-10.31,-10.35,0,*51
1514023370.04,26824,7.06,73226.8,-9.91,-10.31,-10.31,0,*5B
1514023371.25,26825,7.13,73216.0,-9.89,-10.23,-10.23,0,*53
1514023372.46,26826,7.06,73238.3,-9.89,-10.23,-10.23,0,*50
1514023373.66,26827,7.06,73294.8,-9.89,-10.23,-10.23,0,*51
1514023374.9,26828,7.13,73302.8,-9.91,-10.31,-10.23,0,*54
1514023376.1,26829,7.13,73262.3,-9.89,-10.31,-10.23,0,*5C
1514023377.34,26830,7.06,73258.5,-9.91,-10.23,-10.23,0,*5E
1514023378.57,26831,7.06,73254.0,-9.91,-10.31,-10.23,0,*5C
1514023379.8,26832,7.06,73248.8,-9.91,-10.31,-10.23,0,*5F
1514023381.04,26833,7.13,73238.0,-9.91,-10.31,-10.31,0,*5D
1514023382.25,26834,7.06,73236.5,-9.89,-10.31,-10.31,0,*53
1514023383.46,26835,7.13,73216.8,-9.89,-10.31,-10.31,0,*52
1514023384.67,26836,7.13,73246.5,-9.89,-10.23,-10.23,0,*51
1514023385.88,26837,7.06,73202.8,-9.89,-10.23,-10.31,0,*53
1514023387.12,26838,7.06,73254.8,-9.91,-10.23,-10.31,0,*55
1514023388.33,26839,7.13,73244.3,-9.89,-10.31,-10.19,0,*54
1514023389.55,26840,7.06,73270.3,-9.89,-10.31,-10.19,0,*5A
1514023390.75,26841,7.13,73262.8,-9.89,-10.23,-10.23,0,*51
1514023391.96,26842,7.06,73244.8,-9.89,-10.31,-10.31,0,*52
1514023393.17,26843,7.13,73276.3,-9.89,-10.31,-10.23,0,*50
1514023394.38,26844,7.06,73294.3,-9.89,-10.23,-10.23,0,*54
1514023395.59,26845,7.13,73282.3,-9.89,-10.23,-10.31,0,*56
1514023396.8,26846,7.13,73296.5,-9.89,-10.35,-10.23,0,*51
1514023398.01,26847,7.06,73282.3,-9.89,-10.31,-10.31,0,*57
1514023399.22,26848,7.13,73268.3,-9.89,-10.31,-10.31,0,*58
1514023400.43,26849,7.13,73268.8,-9.89,-10.31,-10.23,0,*5A
1514023401.64,26850,7.06,73262.3,-9.89,-10.31,-10.35,0,*55
1514023402.86,26851,7.13,73266.0,-9.89,-10.31,-10.31,0,*50
1514023404.09,26852,7.13,73254.0,-9.87,-10.19,-10.27,0,*50
1514023405.33,26853,7.06,73262.0,-9.87,-10.31,-10.19,0,*56
1514023406.57,26854,7.13,73264.3,-9.87,-10.31,-10.27,0,*5C
1514023407.81,26855,7.06,73270.0,-9.87,-10.27,-10.27,0,*5A
1514023409.04,26856,7.13,73270.0,-9.87,-10.27,-10.27,0,*59
1514023410.28,26857,7.13,73270.5,-9.87,-10.27,-10.19,0,*55
1514023411.51,26858,7.13,73278.3,-9.87,-10.27,-10.27,0,*57
1514023412.75,26859,7.13,73262.0,-9.87,-10.27,-10.27,0,*56
1514023413.99,26860,7.13,73264.8,-9.87,-10.27,-10.27,0,*5C
1514023415.22,26861,7.13,73256.8,-9.87,-10.27,-10.27,0,*5D
1514023416.46,26862,7.06,73262.5,-9.87,-10.27,-10.15,0,*5F
1514023417.7,26863,7.06,73264.0,-9.87,-10.31,-10.19,0,*55
1514023418.93,26864,7.06,73250.5,-9.87,-10.27,-10.19,0,*55
1514023420.15,26865,7.06,73232.8,-9.85,-10.19,-10.27,0,*56
1514023421.39,26866,7.13,73252.5,-9.87,-10.27,-10.19,0,*57
1514023422.62,26867,7.13,73224.5,-9.87,-10.31,-10.19,0,*51
1514023423.84,26868,7.13,73262.5,-9.85,-10.27,-10.27,0,*56
1514023425.05,26869,7.06,73254.8,-9.85,-10.27,-10.27,0,*57
1514023426.29,26870,7.13,73252.3,-9.87,-10.31,-10.27,0,*5A
1514023427.52,26871,7.13,73254.8,-9.87,-10.27,-10.19,0,*51
1514023428.76,26872,7.13,73258.5,-9.87,-10.27,-10.27,0,*5F
1514023429.97,26873,7.06,73248.5,-9.85,-10.27,-10.31,0,*5B
1514023431.19,26874,7.13,73242.5,-9.85,-10.19,-10.19,0,*5B
1514023432.42,26875,7.13,73226.3,-9.87,-10.27,-10.19,0,*55
1514023433.64,26876,7.13,73232.8,-9.85,-10.19,-10.19,0,*59
1514023434.86,26877,7.06,73276.8,-9.85,-10.19,-10.19,0,*58
1514023436.1,26878,7.13,73264.8,-9.87,-10.19,-10.19,0,*55
1514023437.32,26879,7.13,73276.8,-9.85,-10.19,-10.19,0,*56
1514023438.53,26880,7.06,73270.0,-9.85,-10.27,-10.15,0,*51
1514023439.74,26881,7.13,73240.0,-9.85,-10.27,-10.19,0,*5C
1514023440.96,26882,7.13,73270.8,-9.85,-10.31,-10.27,0,*55
1514023442.17,26883,7.13,73240.3,-9.85,-10.19,-10.27,0,*5E
1514023443.39,26884,7.06,73244.0,-9.85,-10.19,-10.19,0,*54
1514023444.6,26885,7.13,73292.3,-9.85,-10.27,-10.19,0,*58
1514023445.82,26886,7.13,73292.5,-9.85,-10.19,-10.19,0,*56
1514023447.04,26887,7.06,73262.8,-9.85,-10.19,-10.19,0,*57
1514023448.25,26888,7.06,73262.8,-9.85,-10.19,-10.19,0,*58
1514023449.47,26889,7.13,73268.0,-9.85,-10.27,-10.19,0,*54
1514023450.7,26890,7.13,73290.8,-9.87,-10.27,-10.27,0,*53
1514023451.92,26891,7.06,73274.8,-9.85,-10.27,-10.27,0,*50
1514023453.13,26892,7.13,73252.3,-9.85,-10.19,-10.27,0,*5E
1514023454.37,26893,7.13,73254.5,-9.87,-10.27,-10.19,0,*5D
1514023455.6,26894,7.13,73234.0,-9.83,-10.23,-10.15,0,*56
1514023456.83,26895,7.06,73206.0,-9.83,-10.23,-10.15,0,*57
1514023458.06,26896,7.13,73178.0,-9.83,-10.23,-10.09,0,*59
1514023459.29,26897,7.13,73208.5,-9.83,-10.15,-10.23,0,*55
1514023460.52,26898,7.06,73232.5,-9.83,-10.23,-10.23,0,*5F
1514023461.75,26899,7.13,73242.3,-9.83,-10.15,-10.23,0,*5B
1514023462.97,26900,7.13,73226.8,-9.83,-10.23,-10.23,0,*5F
1514023464.2,26901,7.06,73256.3,-9.83,-10.15,-10.23,0,*5B
1514023465.43,26902,7.13,73252.8,-9.83,-10.23,-10.23,0,*5D
1514023466.63,26903,7.13,73250.0,-9.81,-10.27,-10.23,0,*5A
1514023467.86,26904,7.13,73252.0,-9.83,-10.23,-10.23,0,*5B
1514023469.09,26905,7.13,73258.8,-9.83,-10.15,-10.23,0,*5F
1514023470.29,26906,7.13,73240.3,-9.81,-10.15,-10.23,0,*5E
1514023471.52,26907,7.13,73250.8,-9.83,-10.23,-10.23,0,*58
1514023472.75,26908,7.13,73242.5,-9.83,-10.23,-10.23,0,*57
1514023473.96,26909,7.06,73242.8,-9.85,-10.27,-10.19,0,*5D
1514023475.17,26910,7.06,73254.3,-9.85,-10.31,-10.27,0,*5F
1514023476.4,26911,7.13,73256.0,-9.83,-10.23,-10.23,0,*5F
1514023477.63,26912,7.13,73264.0,-9.83,-10.23,-10.23,0,*5C
1514023478.85,26913,7.13,73302.3,-9.83,-10.27,-10.23,0,*59
1514023480.08,26914,7.06,73286.8,-9.83,-10.23,-10.23,0,*5A
1514023481.31,26915,7.13,73268.5,-9.83,-10.23,-10.23,0,*5B
1514023482.51,26916,7.13,73284.0,-9.81,-10.23,-10.23,0,*5A
1514023483.71,26917,7.13,73280.3,-9.81,-10.27,-10.23,0,*5F
1514023484.94,26918,7.06,73278.5,-9.83,-10.23,-10.23,0,*56
1514023486.17,26919,7.13,73272.0,-9.83,-10.23,-10.23,0,*57
1514023487.4,26920,7.06,73270.5,-9.83,-10.23,-10.27,0,*59
1514023488.62,26921,7.13,73240.8,-9.83,-10.23,-10.23,0,*5C
1514023489.83,26922,7.13,73244.8,-9.81,-10.27,-10.23,0,*59
1514023491.05,26923,7.13,73292.8,-9.83,-10.23,-10.23,0,*5E
1514023492.29,26924,7.13,73278.8,-9.83,-10.23,-10.15,0,*5C
1514023493.49,26925,7.13,73262.3,-9.81,-10.23,-10.23,0,*5A
1514023494.7,26926,7.13,73256.0,-9.81,-10.27,-10.15,0,*58
1514023495.93,26927,7.13,73252.3,-9.83,-10.23,-10.23,0,*5A
1514023497.16,26928,7.06,73236.0,-9.83,-10.23,-10.15,0,*50
1514023498.36,26929,7.13,73256.8,-9.81,-10.23,-10.23,0,*56
1514023499.59,26930,7.13,73270.3,-9.83,-10.23,-10.15,0,*59
1514023500.8,26931,7.06,73246.8,-9.81,-10.23,-10.23,0,*5F
1514023502.0,26932,7.13,73224.8,-9.81,-10.23,-10.23,0,*5C
1514023503.2,26933,7.06,73280.8,-9.81,-10.23,-10.23,0,*5D
1514023504.41,26934,7.13,73218.0,-9.81,-10.23,-10.23,0,*5A
1514023505.63,26935,7.06,73234.0,-9.83,-10.23,-10.23,0,*59
1514023506.84,26936,7.06,73242.5,-9.81,-10.23,-10.15,0,*5D
1514023508.05,26937,7.13,73252.0,-9.81,-10.27,-10.15,0,*58
1514023509.26,26938,7.13,73248.0,-9.81,-10.23,-10.23,0,*56
1514023510.46,26939,7.13,73264.0,-9.81,-10.23,-10.23,0,*57
1514023511.66,26940,7.13,73300.3,-9.81,-10.27,-10.23,0,*5D
1514023512.87,26941,7.06,73284.3,-9.81,-10.23,-10.23,0,*58
1514023514.09,26942,7.13,73262.8,-9.83,-10.27,-10.23,0,*5D
1514023515.3,26943,7.13,73270.3,-9.81,-10.23,-10.27,0,*5E
1514023516.51,26944,7.13,73262.0,-9.81,-10.23,-10.23,0,*5D
1514023517.71,26945,7.13,73246.8,-9.81,-10.23,-10.23,0,*5C
1514023518.93,26946,7.13,73284.8,-9.83,-10.23,-10.23,0,*5D
1514023520.14,26947,7.06,73302.8,-9.81,-10.23,-10.23,0,*5E
1514023521.34,26948,7.06,73292.8,-9.81,-10.23,-10.23,0,*51
1514023522.54,26949,7.13,73292.3,-9.81,-10.23,-10.23,0,*50
1514023523.75,26950,7.13,73298.5,-9.81,-10.23,-10.15,0,*5D
1514023524.96,26951,7.13,73300.0,-9.81,-10.15,-10.15,0,*59
1514023526.17,26952,7.13,73298.5,-9.81,-10.15,-10.23,0,*5F
1514023527.38,26953,7.06,73298.0,-9.81,-10.27,-10.23,0,*5F
1514023528.58,26954,7.06,73304.5,-9.81,-10.27,-10.15,0,*5D
1514023529.79,26955,7.13,73312.8,-9.81,-10.23,-10.15,0,*58
1514023531.0,26956,7.13,73300.0,-9.79,-10.19,-10.09,0,*58
1514023532.21,26957,7.13,73280.3,-9.79,-10.23,-10.05,0,*5C
1514023533.42,26958,7.13,73284.5,-9.79,-10.19,-10.19,0,*57
1514023534.62,26959,7.13,73272.5,-9.79,-10.05,-10.09,0,*5A
1514023535.83,26960,7.13,73264.8,-9.79,-10.19,-10.09,0,*5D
1514023537.04,26961,7.13,73150.8,-9.79,-10.19,-10.09,0,*5C
1514023538.23,26962,7.13,73172.8,-9.79,-10.09,-10.09,0,*5E
1514023539.44,26963,7.06,73198.8,-9.79,-10.09,-10.19,0,*5E
1514023540.64,26964,7.06,73258.8,-9.79,-10.09,-10.19,0,*59
1514023541.85,26965,7.06,73300.8,-9.79,-10.09,-10.19,0,*58
1514023543.05,26966,7.13,73242.0,-9.79,-10.09,-10.19,0,*5B
1514023544.27,26967,7.13,73172.0,-9.79,-10.19,-10.19,0,*5B
1514023545.48,26968,7.13,73292.3,-9.79,-10.19,-10.09,0,*55
1514023546.69,26969,7.06,73250.0,-9.79,-10.19,-10.09,0,*54
1514023547.89,26970,7.06,73226.0,-9.79,-10.19,-10.09,0,*5C
1514023549.1,26971,7.13,73240.8,-9.79,-10.09,-10.19,0,*5D
1514023550.3,26972,7.06,73266.0,-9.79,-10.09,-10.19,0,*5E
1514023551.51,26973,7.13,73234.3,-9.79,-10.09,-10.19,0,*5F
1514023552.71,26974,7.13,73284.8,-9.79,-10.09,-10.19,0,*58
1514023553.94,26975,7.13,73268.3,-9.77,-10.05,-10.09,0,*5A
1514023555.14,26976,7.13,73252.8,-9.79,-10.09,-10.09,0,*5B
1514023556.33,26977,7.06,73252.8,-9.79,-10.09,-10.09,0,*5A
1514023557.57,26978,7.06,73258.8,-9.77,-10.19,-10.09,0,*5A
1514023558.81,26979,7.06,73258.5,-9.77,-10.19,-10.09,0,*5B
1514023560.02,26980,7.13,73302.8,-9.79,-10.19,-10.09,0,*53
1514023561.25,26981,7.13,73278.3,-9.77,-10.09,-10.09,0,*5D
1514023562.47,26982,7.13,73246.8,-9.77,-10.09,-10.09,0,*5E
1514023563.71,26983,7.13,73268.0,-9.77,-10.19,-10.05,0,*52
1514023564.92,26984,7.13,73246.8,-9.79,-10.09,-10.19,0,*57
1514023566.12,26985,7.06,73270.3,-9.79,-10.05,-10.19,0,*5A
1514023567.35,26986,7.06,73242.0,-9.77,-10.09,-10.09,0,*5A
1514023568.57,26987,7.13,73252.3,-9.77,-10.05,-10.05,0,*5B
1514023569.81,26988,7.06,73244.0,-9.77,-10.09,-10.19,0,*55
1514023571.03,26989,7.13,73254.0,-9.77,-10.09,-10.09,0,*55
1514023572.28,26990,7.13,73274.5,-9.77,-10.19,-10.19,0,*5D
1514023573.48,26991,7.13,73278.5,-9.79,-10.09,-10.19,0,*53
1514023574.7,26992,7.13,73286.0,-9.79,-10.19,-10.19,0,*51
1514023575.94,26993,7.13,73290.5,-9.77,-10.23,-10.19,0,*57
1514023577.18,26994,7.13,73294.3,-9.77,-10.19,-10.23,0,*50
1514023578.42,26995,7.13,73292.8,-9.77,-10.19,-10.09,0,*59
1514023579.66,26996,7.13,73294.3,-9.77,-10.19,-10.19,0,*5B
1514023580.91,26997,7.13,73288.3,-9.77,-10.19,-10.19,0,*5A
1514023582.14,26998,7.13,73288.5,-9.77,-10.09,-10.09,0,*55
1514023583.37,26999,7.13,73284.0,-9.77,-10.19,-10.09,0,*55
1514023584.61,27000,7.13,73284.0,-9.77,-10.19,-10.09,0,*5D
1514023585.86,27001,7.13,73288.8,-9.77,-10.19,-10.19,0,*5D
1514023587.1,27002,7.13,73290.5,-9.77,-10.19,-10.19,0,*5E
1514023588.35,27003,7.13,73288.5,-9.77,-10.19,-10.19,0,*5F
1514023589.56,27004,7.13,73292.5,-9.75,-10.15,-10.15,0,*5A
1514023590.76,27005,7.06,73286.5,-9.75,-10.05,-10.05,0,*5B
1514023591.98,27006,7.06,73290.8,-9.77,-10.09,-10.23,0,*52
1514023593.19,27007,7.06,73290.0,-9.75,-10.05,-10.15,0,*58
1514023594.39,27008,7.06,73290.5,-9.75,-10.05,-10.15,0,*57
1514023595.61,27009,7.06,73288.8,-9.75,-10.15,-10.15,0,*57
1514023596.81,27010,7.13,73292.5,-9.75,-10.15,-10.05,0,*5E
1514023598.01,27011,7.13,73292.3,-9.75,-10.05,-10.05,0,*5E
1514023599.24,27012,7.13,73290.3,-9.73,-10.15,-10.05,0,*5A
1514023600.44,27013,7.13,73286.0,-9.75,-10.01,-10.05,0,*58
1514023601.65,27014,7.13,73284.0,-9.75,-10.15,-10.05,0,*5A
1514023602.84,27015,7.06,73284.8,-9.75,-10.05,-10.05,0,*5A
1514023604.04,27016,7.13,73278.8,-9.75,-10.05,-10.05,0,*59
1514023605.24,27017,7.13,73274.3,-9.75,-10.05,-10.15,0,*59
1514023606.44,27018,7.06,73288.0,-9.75,-10.05,-10.15,0,*56
1514023607.65,27019,7.06,73272.5,-9.75,-10.15,-10.05,0,*57
1514023608.87,27020,7.13,73278.8,-9.73,-10.05,-10.05,0,*5A
1514023610.07,27021,7.06,73272.0,-9.75,-10.05,-10.05,0,*5D
1514023611.26,27022,7.06,73278.5,-9.75,-10.05,-10.05,0,*5E
1514023612.47,27023,7.06,73272.8,-9.75,-10.15,-10.05,0,*5E
1514023613.68,27024,7.13,73280.8,-9.75,-10.15,-10.05,0,*59
1514023614.88,27025,7.13,73280.3,-9.75,-10.15,-10.05,0,*58
1514023616.12,27026,7.13,73284.0,-9.73,-10.15,-10.05,0,*5D
1514023617.34,27027,7.13,73284.5,-9.73,-10.05,-10.01,0,*59
1514023618.58,27028,7.13,73278.8,-9.73,-10.15,-10.01,0,*57
1514023619.8,27029,7.13,73278.8,-9.73,-10.05,-10.05,0,*53
1514023621.02,27030,7.06,73278.8,-9.73,-10.05,-10.05,0,*5B
1514023622.25,27031,7.13,73292.0,-9.73,-10.05,-10.15,0,*5B
1514023623.48,27032,7.13,73280.0,-9.73,-10.05,-10.01,0,*5D
1514023624.7,27033,7.06,73276.5,-9.73,-10.05,-10.05,0,*58
1514023625.92,27034,7.13,73262.5,-9.73,-10.05,-10.05,0,*5F
1514023627.11,27035,7.13,73288.3,-9.75,-10.05,-10.05,0,*58
1514023628.34,27036,7.13,73276.8,-9.73,-10.01,-10.05,0,*59
1514023629.56,27037,7.13,73276.3,-9.73,-10.05,-10.05,0,*5C
1514023630.78,27038,7.13,73282.3,-9.73,-10.01,-10.05,0,*57
1514023632.01,27039,7.06,73272.8,-9.73,-10.05,-10.15,0,*53
1514023633.21,27040,7.13,73280.5,-9.71,-10.01,-10.01,0,*5E
1514023634.41,27041,7.13,73284.0,-9.71,-10.01,-10.09,0,*57
1514023635.61,27042,7.06,73286.5,-9.71,-10.01,-10.01,0,*5C
1514023636.84,27043,7.06,73286.8,-9.73,-10.05,-10.15,0,*5E
1514023638.06,27044,7.13,73290.3,-9.73,-10.05,-10.05,0,*58
1514023639.25,27045,7.06,73290.8,-9.71,-10.01,-9.97,0,*6C
1514023640.46,27046,7.13,73300.3,-9.71,-10.01,-10.01,0,*58
1514023641.65,27047,7.13,73298.3,-9.71,-10.01,-9.97,0,*6E
1514023642.85,27048,7.13,73296.3,-9.71,-10.09,-10.01,0,*5E
1514023644.05,27049,7.13,73296.5,-9.67,-10.01,-10.09,0,*58
1514023645.25,27050,7.13,73294.8,-9.71,-10.01,-10.09,0,*57
1514023646.45,27051,7.06,73296.3,-9.71,-10.01,-10.01,0,*5E
1514023647.65,27052,7.06,73290.0,-9.67,-10.09,-10.01,0,*52
1514023648.85,27053,7.13,73292.3,-9.71,-10.01,-10.01,0,*5C
1514023650.05,27054,7.13,73294.0,-9.71,-10.09,-10.01,0,*53
1514023651.24,27055,7.13,73288.8,-9.71,-10.01,-9.97,0,*6D
1514023652.45,27056,7.13,73290.5,-9.71,-10.01,-10.01,0,*59
1514023653.65,27057,7.13,73290.5,-9.71,-9.97,-10.01,0,*6F
1514023654.85,27058,7.13,73290.3,-9.71,-10.01,-10.01,0,*57
1514023656.05,27059,7.13,73292.5,-9.71,-10.01,-10.01,0,*56
1514023657.26,27060,7.06,73294.3,-9.67,-10.01,-10.01,0,*5B
1514023658.46,27061,7.13,73292.5,-9.71,-10.09,-10.01,0,*55
1514023659.66,27062,7.06,73292.8,-9.67,-10.01,-10.01,0,*59
1514023660.86,27063,7.06,73292.3,-9.71,-10.09,-10.01,0,*57
1514023662.06,27064,7.13,73294.3,-9.67,-10.09,-10.01,0,*57
1514023663.26,27065,7.13,73290.5,-9.67,-10.09,-10.01,0,*56
1514023664.46,27066,7.13,73294.3,-9.67,-10.09,-10.01,0,*55
1514023665.66,27067,7.13,73294.0,-9.71,-10.01,-10.09,0,*53
1514023666.86,27068,7.13,73292.3,-9.67,-10.01,-10.01,0,*53
1514023668.05,27069,7.13,73292.5,-9.67,-10.09,-9.97,0,*6D
1514023669.25,27070,7.06,73292.8,-9.67,-10.01,-10.01,0,*5A
1514023670.46,27071,7.13,73298.0,-9.67,-10.01,-10.01,0,*5B
1514023671.66,27072,7.13,73296.8,-9.67,-10.01,-10.01,0,*58
1514023672.86,27073,7.13,73298.3,-9.67,-10.01,-10.01,0,*59
1514023674.06,27074,7.13,73302.3,-9.67,-10.09,-10.01,0,*56
1514023675.27,27075,7.06,73292.5,-9.67,-10.01,-10.01,0,*5F
1514023676.47,27076,7.13,73298.3,-9.67,-10.01,-10.01,0,*5C
1514023677.67,27077,7.13,73292.5,-9.67,-10.01,-10.01,0,*5D
1514023678.87,27078,7.13,73290.5,-9.67,-10.01,-10.09,0,*5A
1514023680.05,27079,7.06,73280.5,-9.67,-9.97,-9.97,0,*53
1514023681.25,27080,7.06,73280.5,-9.67,-10.01,-10.09,0,*5D
1514023682.46,27081,7.13,73276.8,-9.67,-10.01,-10.01,0,*54
1514023683.66,27082,7.13,73292.0,-9.67,-10.01,-10.01,0,*57
1514023684.86,27083,7.13,73278.5,-9.67,-10.01,-10.01,0,*56
1514023686.07,27084,7.13,73282.3,-9.67,-10.01,-10.01,0,*51
1514023687.25,27085,7.13,73280.0,-9.67,-10.09,-9.97,0,*6F
1514023688.45,27086,7.06,73282.8,-9.67,-10.09,-10.01,0,*5B
1514023689.65,27087,7.13,73286.0,-9.67,-10.09,-10.01,0,*5A
1514023690.86,27088,7.13,73286.5,-9.67,-10.01,-10.01,0,*5D
1514023692.06,27089,7.13,73288.5,-9.67,-10.01,-10.01,0,*5C
1514023693.26,27090,7.13,73288.5,-9.67,-10.01,-10.09,0,*5C
1514023694.47,27091,7.13,73282.5,-9.65,-9.97,-9.97,0,*57
1514023695.68,27092,7.06,73282.0,-9.65,-9.93,-9.97,0,*50
1514023696.89,27093,7.13,73286.3,-9.65,-9.97,-9.97,0,*55
1514023698.08,27094,7.13,73284.5,-9.63,-9.97,-9.97,0,*54